Location: Warwick
(41.7000°N, 71.4170°W)
Time: 07:38:00
(UTC-04:00)

BREEZE-M DEB (TANK) - Visible Passes

Search period start: 01 July 2016 00:00
Search period end: 11 July 2016 00:00
Orbit: 286 x 15904 km, 49.5° (Epoch: 30 June)

Date Brightness Start Highest point End Pass type
(mag) Time Alt. Az. Time Alt. Az. Time Alt. Az.
01 Jul 8.2 01:21:38 10° NW 03:05:18 46° W 04:28:31 10° SSW visible
01 Jul 8.7 20:02:45 10° W 20:59:01 78° N 23:31:46 10° ESE visible
02 Jul 8.2 01:26:59 10° NW 03:07:53 44° W 04:31:29 10° SSW visible
02 Jul 8.7 20:07:25 10° W 21:07:09 79° NNE 23:36:50 10° SE visible
03 Jul 8.2 01:32:21 10° NW 03:10:22 42° W 04:34:15 10° SSW visible
03 Jul 8.6 20:12:04 10° W 21:15:27 80° NNE 23:41:48 10° SE visible
04 Jul 8.2 01:37:44 10° NW 03:12:47 40° W 04:36:49 10° SW visible
04 Jul 8.6 20:16:44 10° W 21:23:48 80° NNE 23:46:42 10° SE visible
05 Jul 8.2 01:43:10 10° NW 03:15:08 37° W 04:39:09 10° SW visible
05 Jul 8.6 20:21:23 10° W 21:32:06 81° NNE 23:51:29 10° SE visible
06 Jul 8.3 01:48:39 10° NW 03:17:25 35° W 04:41:12 10° SW visible
06 Jul 8.6 20:26:02 10° W 21:40:17 82° NNE 23:56:11 10° SE visible
07 Jul 8.3 01:54:12 10° NW 03:19:40 33° W 04:42:55 10° SW visible
07 Jul 8.5 20:30:41 10° WNW 21:48:13 84° NNE 00:00:48 10° SE visible
08 Jul 8.4 01:59:49 10° NW 03:21:52 31° W 04:44:16 10° SW visible
08 Jul 8.5 20:35:19 10° WNW 21:55:52 85° NE 00:04:20 11° SE visible
09 Jul 8.5 02:05:32 10° NW 03:24:01 29° WNW 04:45:12 10° WSW visible
09 Jul 8.5 20:39:58 10° WNW 22:03:10 87° NE 00:05:36 16° SE visible
10 Jul 8.5 02:11:22 10° NW 03:26:08 27° WNW 04:45:36 10° WSW visible
